When you browse on this site, cookies collect data to enhance your experience and personalize the content and advertising you see.
Visit our Privacy Policy to learn more. By continuing to use the site, you agree to this use of cookies and data.
  • In Romania
  • List of Countries
  • For 7 days
  • Water Temperature
  • Satellite Maps
  • Weather Map
  • Weather Widgets
  • user-avatar
    Login

    Hourly Weather Konstantyna

    Today, 26 March, Tuesday

    Time Temperature Precipitation Wind Pressure Humidity
    00:00 +9°C° 0 mm 0 mps 709 mmHg 84%
    01:00 +9°C° 0 mm 0 mps 709 mmHg 83%
    02:00 +10°C° 0 mm 0 mps 709 mmHg 82%
    03:00 +10°C° 0 mm 0 mps 709 mmHg 81%
    04:00 +10°C° 0 mm 1 mps 709 mmHg 83%
    05:00 +10°C° 0 mm 1 mps 709 mmHg 85%
    06:00 +10°C° 0 mm 1 mps 708 mmHg 88%
    07:00 +10°C° 0 mm 2 mps 709 mmHg 81%
    08:00 +12°C° 0 mm 2 mps 709 mmHg 75%
    09:00 +14°C° 0 mm 2 mps 709 mmHg 69%
    10:00 +13°C° 0 mm 3 mps 709 mmHg 69%
    11:00 +13°C° 0 mm 3 mps 709 mmHg 70%
    12:00 +13°C° 0 mm 4 mps 709 mmHg 70%
    13:00 +13°C° 0 mm 4 mps 709 mmHg 69%
    14:00 +13°C° 0 mm 4 mps 709 mmHg 68%
    15:00 +13°C° 0 mm 4 mps 709 mmHg 68%
    16:00 +11°C° 0 mm 4 mps 709 mmHg 73%
    17:00 +8°C° 0 mm 4 mps 709 mmHg 79%
    18:00 +8°C° 0 mm 3 mps 709 mmHg 85%
    19:00 +7°C° 0 mm 3 mps 709 mmHg 87%
    20:00 +6°C° 0 mm 2 mps 710 mmHg 90%
    21:00 +6°C° 0 mm 1 mps 710 mmHg 93%
    22:00 +6°C° 0 mm 1 mps 710 mmHg 92%
    23:00 +6°C° 0 mm 1 mps 710 mmHg 91%

    Tomorrow, 27 March, Wednesday

    Time Temperature Precipitation Wind Pressure Humidity
    00:00 +6°C° 0 mm 1 mps 711 mmHg 91%
    01:00 +6°C° 0 mm 1 mps 710 mmHg 91%
    02:00 +5°C° 0 mm 1 mps 710 mmHg 92%
    03:00 +5°C° 0 mm 1 mps 710 mmHg 92%
    04:00 +5°C° 0 mm 1 mps 710 mmHg 92%
    05:00 +5°C° 0 mm 1 mps 710 mmHg 91%
    06:00 +5°C° 0 mm 1 mps 710 mmHg 91%
    07:00 +7°C° 0 mm 1 mps 711 mmHg 84%
    08:00 +7°C° 0 mm 2 mps 711 mmHg 78%
    09:00 +9°C° 0 mm 2 mps 712 mmHg 72%
    10:00 +10°C° 0 mm 2 mps 712 mmHg 71%
    11:00 +10°C° 0 mm 3 mps 712 mmHg 69%
    12:00 +11°C° 0 mm 3 mps 712 mmHg 68%
    13:00 +11°C° 0 mm 3 mps 712 mmHg 70%
    14:00 +11°C° 0 mm 3 mps 711 mmHg 72%
    15:00 +11°C° 0 mm 3 mps 711 mmHg 75%
    16:00 +10°C° 0 mm 3 mps 711 mmHg 80%
    17:00 +9°C° 0 mm 2 mps 711 mmHg 85%
    18:00 +8°C° 0 mm 2 mps 712 mmHg 90%
    19:00 +7°C° 0 mm 2 mps 712 mmHg 92%
    20:00 +8°C° 0 mm 1 mps 712 mmHg 94%
    21:00 +7°C° 0 mm 1 mps 713 mmHg 96%
    22:00 +7°C° 0 mm 1 mps 713 mmHg 95%
    23:00 +7°C° 0 mm 1 mps 713 mmHg 94%

    Day after tomorrow, 28 March, Thursday

    Time Temperature Precipitation Wind Pressure Humidity
    00:00 +7°C° 0 mm 1 mps 713 mmHg 94%
    01:00 +7°C° 0 mm 1 mps 713 mmHg 93%
    02:00 +7°C° 0 mm 1 mps 713 mmHg 93%
    03:00 +7°C° 0 mm 1 mps 713 mmHg 93%
    04:00 +7°C° 0 mm 1 mps 713 mmHg 92%
    05:00 +7°C° 0 mm 1 mps 713 mmHg 92%
    06:00 +7°C° 0 mm 1 mps 713 mmHg 92%
    07:00 +8°C° 0 mm 1 mps 714 mmHg 85%
    08:00 +10°C° 0 mm 1 mps 714 mmHg 78%
    09:00 +11°C° 0 mm 1 mps 715 mmHg 71%
    10:00 +12°C° 0 mm 1 mps 715 mmHg 68%
    11:00 +12°C° 0 mm 1 mps 715 mmHg 66%
    12:00 +13°C° 0 mm 1 mps 715 mmHg 63%
    13:00 +13°C° 0.2 mm 2 mps 714 mmHg 64%
    14:00 +14°C° 0.2 mm 2 mps 714 mmHg 65%
    15:00 +14°C° 0.2 mm 2 mps 714 mmHg 66%
    16:00 +12°C° 0.3 mm 2 mps 714 mmHg 74%
    17:00 +10°C° 0.3 mm 2 mps 714 mmHg 82%
    18:00 +9°C° 0.3 mm 2 mps 714 mmHg 90%
    19:00 +9°C° 0 mm 1 mps 714 mmHg 91%
    20:00 +8°C° 0 mm 1 mps 715 mmHg 93%
    21:00 +6°C° 0 mm 0 mps 715 mmHg 95%
    22:00 +6°C° 0 mm 0 mps 715 mmHg 94%
    23:00 +5°C° 0 mm 0 mps 715 mmHg 94%

    29 March, Friday

    Time Temperature Precipitation Wind Pressure Humidity
    00:00 +5°C° 0 mm 0 mps 715 mmHg 94%
    01:00 +5°C° 0 mm 0 mps 715 mmHg 94%
    02:00 +5°C° 0 mm 0 mps 714 mmHg 93%
    03:00 +4°C° 0 mm 0 mps 714 mmHg 92%
    04:00 +5°C° 0 mm 0 mps 714 mmHg 92%
    05:00 +5°C° 0 mm 0 mps 715 mmHg 91%
    06:00 +5°C° 0 mm 0 mps 715 mmHg 91%
    07:00 +8°C° 0 mm 0 mps 715 mmHg 83%
    08:00 +11°C° 0 mm 1 mps 716 mmHg 75%
    09:00 +13°C° 0 mm 1 mps 716 mmHg 67%
    10:00 +14°C° 0 mm 1 mps 716 mmHg 63%
    11:00 +15°C° 0 mm 1 mps 716 mmHg 58%
    12:00 +18°C° 0 mm 1 mps 716 mmHg 53%
    13:00 +16°C° 0.1 mm 1 mps 715 mmHg 55%
    14:00 +16°C° 0.1 mm 2 mps 715 mmHg 57%
    15:00 +16°C° 0.1 mm 2 mps 715 mmHg 59%
    16:00 +15°C° 0.3 mm 2 mps 714 mmHg 68%
    17:00 +13°C° 0.3 mm 2 mps 714 mmHg 77%
    18:00 +12°C° 0.3 mm 2 mps 714 mmHg 86%
    19:00 +10°C° 0.1 mm 2 mps 714 mmHg 88%
    20:00 +10°C° 0.1 mm 2 mps 715 mmHg 90%
    21:00 +11°C° 0.1 mm 1 mps 715 mmHg 92%
    22:00 +10°C° 0 mm 1 mps 715 mmHg 91%
    23:00 +10°C° 0 mm 1 mps 714 mmHg 90%

    30 March, Saturday

    Time Temperature Precipitation Wind Pressure Humidity
    00:00 +9°C° 0 mm 1 mps 714 mmHg 89%
    01:00 +9°C° 0 mm 1 mps 714 mmHg 87%
    02:00 +9°C° 0 mm 1 mps 714 mmHg 85%
    03:00 +8°C° 0 mm 1 mps 714 mmHg 83%
    04:00 +8°C° 0 mm 1 mps 714 mmHg 81%
    05:00 +8°C° 0 mm 2 mps 714 mmHg 80%
    06:00 +8°C° 0 mm 2 mps 714 mmHg 78%
    07:00 +10°C° 0 mm 2 mps 714 mmHg 71%
    08:00 +13°C° 0 mm 3 mps 714 mmHg 63%
    09:00 +16°C° 0 mm 3 mps 715 mmHg 55%
    10:00 +17°C° 0 mm 3 mps 714 mmHg 51%
    11:00 +18°C° 0 mm 3 mps 714 mmHg 47%
    12:00 +19°C° 0 mm 2 mps 714 mmHg 43%
    13:00 +19°C° 0 mm 2 mps 714 mmHg 43%
    14:00 +19°C° 0 mm 2 mps 713 mmHg 43%
    15:00 +20°C° 0 mm 1 mps 713 mmHg 42%
    16:00 +19°C° 0.1 mm 1 mps 712 mmHg 53%
    17:00 +16°C° 0.1 mm 1 mps 712 mmHg 63%
    18:00 +14°C° 0.1 mm 2 mps 712 mmHg 73%
    19:00 +13°C° 0 mm 1 mps 712 mmHg 76%
    20:00 +12°C° 0 mm 1 mps 712 mmHg 80%
    21:00 +11°C° 0 mm 1 mps 712 mmHg 83%
    22:00 +11°C° 0 mm 1 mps 711 mmHg 82%
    23:00 +11°C° 0 mm 1 mps 711 mmHg 81%

    31 March, Sunday

    Time Temperature Precipitation Wind Pressure Humidity
    00:00 +10°C° 0 mm 1 mps 711 mmHg 80%
    01:00 +10°C° 0 mm 1 mps 710 mmHg 78%
    02:00 +10°C° 0 mm 1 mps 710 mmHg 76%
    03:00 +10°C° 0 mm 1 mps 710 mmHg 75%
    04:00 +10°C° 0 mm 1 mps 710 mmHg 74%
    05:00 +9°C° 0 mm 2 mps 709 mmHg 74%
    06:00 +9°C° 0 mm 2 mps 709 mmHg 73%
    07:00 +12°C° 0 mm 2 mps 710 mmHg 66%
    08:00 +15°C° 0 mm 2 mps 710 mmHg 59%
    09:00 +17°C° 0 mm 2 mps 710 mmHg 53%
    10:00 +18°C° 0 mm 2 mps 710 mmHg 49%
    11:00 +19°C° 0 mm 2 mps 710 mmHg 46%
    12:00 +21°C° 0 mm 1 mps 709 mmHg 43%
    13:00 +21°C° 0 mm 1 mps 709 mmHg 45%
    14:00 +21°C° 0 mm 1 mps 708 mmHg 47%
    15:00 +21°C° 0 mm 1 mps 708 mmHg 48%
    16:00 +19°C° 0.2 mm 1 mps 708 mmHg 56%
    17:00 +17°C° 0.2 mm 2 mps 708 mmHg 63%
    18:00 +15°C° 0.2 mm 2 mps 708 mmHg 70%
    19:00 +14°C° 0.1 mm 2 mps 708 mmHg 70%
    20:00 +14°C° 0.1 mm 2 mps 708 mmHg 69%
    21:00 +13°C° 0.1 mm 2 mps 708 mmHg 68%
    22:00 +12°C° 0.1 mm 2 mps 708 mmHg 71%
    23:00 +12°C° 0.1 mm 2 mps 708 mmHg 74%
    Show more